Waarnemingen

Advertentie
Mijn weer
Garmisch-Partenkirchen, Duitsland (10963): temperatuur & dauwpunt: 13.06.2018 02:00:00 - 19.06.2018 02:00:00 (CEST)Garmisch-Partenkirchen, Duitsland (10963): temperatuur 5cm & temperatuur -5cm: 13.06.2018 02:00:00 - 19.06.2018 02:00:00 (CEST)Garmisch-Partenkirchen, Duitsland (10963): temperatuur -20cm & temperatuur -100cm: 13.06.2018 02:00:00 - 19.06.2018 02:00:00 (CEST)Garmisch-Partenkirchen, Duitsland (10963): windsnelheid & windstoten: 13.06.2018 02:00:00 - 19.06.2018 02:00:00 (CEST)Garmisch-Partenkirchen, Duitsland (10963): windrichting: 13.06.2018 02:00:00 - 19.06.2018 02:00:00 (CEST)Garmisch-Partenkirchen, Duitsland (10963): luchtdruk: 13.06.2018 02:00:00 - 19.06.2018 02:00:00 (CEST)Garmisch-Partenkirchen, Duitsland (10963): zicht: 13.06.2018 02:00:00 - 19.06.2018 02:00:00 (CEST)Garmisch-Partenkirchen, Duitsland (10963): Zonneschijnduur: 13.06.2018 02:00:00 - 19.06.2018 02:00:00 (CEST)Garmisch-Partenkirchen, Duitsland (10963): neerslag: 13.06.2018 02:00:00 - 19.06.2018 02:00:00 (CEST)
Datum & Tijd tt [°C] td [°C] tt 5cm [°C] tt -5cm [°C] tt -20cm [°C] tt -100cm [°C] ff [km/u] ff [kn] fx [km/u] fx [kn] dd ppp [hPa] vv [km] sd [min] rr [mm]
19.06.2018 02:00:00 - - - - - - - - - - - - - - -
19.06.2018 01:00:00 11,6 11,1 11,2 16,8 19,6 16,5 4 2 7 4 ZW 1024,9 6 0 0,0
19.06.2018 00:00:00 12,8 12,3 11,8 17,7 20,0 16,5 3 1 6 4 WZW 1024,6 16 0 0,0
18.06.2018 23:00:00 13,8 12,9 13,0 18,7 20,4 16,5 2 1 7 4 ZW 1024,1 23 0 0,0
18.06.2018 22:00:00 14,4 13,3 13,8 19,7 20,7 16,5 3 2 6 3 ZW 1023,4 15 0 0,0
18.06.2018 21:00:00 17,0 13,9 16,2 21,0 20,9 16,5 3 1 6 3 WZW 1022,0 51 0 0,0
18.06.2018 20:00:00 19,0 12,9 18,9 22,3 20,9 16,5 2 1 8 5 NNO 1021,3 61 1 0,0
18.06.2018 19:00:00 19,4 11,9 21,0 23,2 20,7 16,5 5 3 9 5 NNO 1021,1 60 17 0,0
18.06.2018 18:00:00 19,8 12,8 22,2 22,7 20,5 16,5 2 1 8 5 WNW 1020,8 56 4 0,0
18.06.2018 17:00:00 18,8 13,4 20,3 22,0 20,4 16,5 5 3 12 6 ZW 1021,2 56 0 0,0
18.06.2018 16:00:00 17,8 14,4 18,4 21,3 20,5 16,5 5 3 9 5 WZW 1021,7 39 0 0,0
18.06.2018 15:00:00 18,0 12,9 17,9 21,7 20,5 16,4 6 3 16 8 NO 1021,5 40 0 0,0
18.06.2018 14:00:00 18,5 12,4 19,5 22,5 20,3 16,4 7 4 12 7 NO 1021,2 55 0 0,0
18.06.2018 13:00:00 18,3 12,5 19,8 23,3 20,0 16,4 6 4 14 8 NO 1021,3 53 0 0,0
18.06.2018 12:00:00 18,1 12,2 20,7 23,8 19,4 16,4 8 4 18 10 NO 1021,1 46 19 0,0
18.06.2018 11:00:00 18,7 12,6 21,7 22,6 18,8 16,4 7 4 13 7 ONO 1021,1 24 46 0,0
18.06.2018 10:00:00 16,9 12,1 18,7 20,1 18,4 16,4 7 4 15 8 ONO 1021,9 33 21 0,0
18.06.2018 09:00:00 16,1 12,5 16,5 18,5 18,3 16,4 6 3 11 6 O 1022,0 22 22 0,0
18.06.2018 08:00:00 14,0 12,9 14,2 17,2 18,4 16,4 5 3 10 5 NNO 1022,5 23 0 0,0
18.06.2018 07:00:00 13,8 13,3 13,7 16,9 18,5 16,4 0 0 4 2 N 1022,0 26 0 0,0
18.06.2018 06:00:00 13,6 13,2 13,6 16,9 18,7 16,4 2 1 5 3 W 1022,2 23 0 0,1
18.06.2018 05:00:00 13,5 13,1 13,6 17,0 18,9 16,3 0 0 4 2 N 1021,8 27 0 0,1
18.06.2018 04:00:00 13,7 13,3 13,7 17,1 19,1 16,3 3 1 6 3 WZW 1021,6 10 0 1,1
18.06.2018 03:00:00 13,6 13,2 13,5 17,4 19,4 16,3 3 1 4 2 ZW 1021,7 4,5 0 1,6
18.06.2018 02:00:00 13,7 13,3 13,8 17,5 19,7 16,3 0 0 5 3 N 1021,7 4,8 0 1,3
18.06.2018 01:00:00 13,6 13,3 13,8 17,8 20,1 16,3 0 0 6 3 N 1021,8 2,5 0 4,5
18.06.2018 00:00:00 13,8 13,4 14,0 18,5 20,6 16,3 2 1 5 3 ZW 1021,6 1,7 0 3,6
17.06.2018 23:00:00 14,2 13,9 14,4 19,2 21,0 16,3 3 2 10 5 WNW 1020,9 2,4 0 0,0
17.06.2018 22:00:00 13,9 13,3 14,0 19,8 21,4 16,3 1 1 9 5 Z 1020,5 28 0 2,0
17.06.2018 21:00:00 14,2 13,5 14,4 20,8 21,8 16,3 6 3 29 16 Z 1020,1 2,6 0 3,7
17.06.2018 20:00:00 17,7 12,6 17,6 22,9 21,9 16,3 7 4 23 12 ONO 1017,3 43 0 0,0
17.06.2018 19:00:00 19,0 13,2 20,1 24,0 21,8 16,3 11 6 23 12 NO 1016,3 36 6 0,0
17.06.2018 18:00:00 19,7 13,7 21,1 24,1 21,7 16,2 9 5 22 12 NO 1015,7 32 0 0,0
17.06.2018 17:00:00 19,8 13,2 20,9 24,1 21,6 16,2 8 5 23 13 NO 1015,8 31 0 0,0
17.06.2018 16:00:00 20,1 13,2 21,4 24,5 21,3 16,2 9 5 19 10 NO 1015,9 34 0 0,0
17.06.2018 15:00:00 20,3 12,8 22,6 23,9 21,0 16,2 7 4 20 11 NNO 1015,9 35 0 0,0
17.06.2018 14:00:00 19,7 13,2 21,5 23,4 20,7 16,2 6 4 22 12 O 1016,3 36 1 0,0
17.06.2018 13:00:00 20,0 11,8 21,4 23,0 20,4 16,2 8 5 18 10 NO 1016,5 45 4 0,0
17.06.2018 12:00:00 19,6 11,5 21,1 21,8 20,2 16,2 4 2 13 7 ONO 1016,7 45 0 0,0
17.06.2018 11:00:00 18,3 10,6 18,5 21,7 19,9 16,2 6 4 13 7 OZO 1017,0 47 1 0,0
17.06.2018 10:00:00 19,7 10,1 20,3 21,6 19,5 16,2 3 1 6 4 ZZW 1016,2 65 34 0,0
17.06.2018 09:00:00 18,6 10,8 19,9 19,0 19,5 16,1 4 2 6 3 ZZO 1016,4 48 41 0,0
17.06.2018 08:00:00 13,8 10,5 14,3 17,4 19,7 16,1 2 1 6 3 ZZW 1018,0 41 0 0,0
17.06.2018 07:00:00 11,2 9,1 11,8 16,6 20,0 16,1 3 1 4 2 ZW 1018,8 36 0 0,0
17.06.2018 06:00:00 9,4 8,7 9,4 16,5 20,5 16,1 0 0 8 4 N 1019,0 20 0 0,0
17.06.2018 05:00:00 9,1 8,4 7,9 17,1 21,1 16,1 4 2 5 3 WZW 1018,9 21 0 0,0
17.06.2018 04:00:00 9,6 8,8 8,9 17,9 21,6 16,1 3 2 4 2 W 1018,6 18 0 0,0
17.06.2018 03:00:00 10,4 9,4 10,0 18,9 22,2 16,1 2 1 4 2 WZW 1018,5 23 0 0,0
17.06.2018 02:00:00 11,2 9,6 11,1 19,7 22,8 16,1 2 1 5 3 WZW 1018,1 31 0 0,0
17.06.2018 01:00:00 11,7 9,7 11,6 20,7 23,4 16,1 4 2 8 4 ZZW 1018,0 36 0 0,0
17.06.2018 00:00:00 12,3 9,9 12,0 21,7 24,0 16,1 0 0 5 3 N 1017,6 43 0 0,0
16.06.2018 23:00:00 13,1 10,1 13,2 22,9 24,7 16,1 3 2 6 3 ZW 1017,2 39 0 0,0
16.06.2018 22:00:00 14,3 10,5 13,5 24,6 25,3 16,1 3 1 5 3 ZW 1016,1 48 0 0,0
16.06.2018 21:00:00 17,2 10,3 16,1 26,7 25,7 16,1 2 1 9 5 W 1014,5 61 0 0,0
16.06.2018 20:00:00 21,2 6,2 21,0 29,0 25,9 16,1 6 3 19 10 N 1012,9 70 35 0,0
16.06.2018 19:00:00 22,4 7,3 24,3 31,6 25,8 16,1 9 5 21 12 N 1012,2 70 52 0,0
16.06.2018 18:00:00 23,5 8,0 28,6 32,9 25,3 16,1 11 6 29 16 NNO 1011,5 57 59 0,0
16.06.2018 17:00:00 24,0 7,3 29,5 33,6 24,6 16,1 11 6 34 18 NNO 1011,4 44 60 0,0
16.06.2018 16:00:00 23,9 7,7 29,7 33,5 23,7 16,1 13 7 32 17 NO 1011,5 41 60 0,0
16.06.2018 15:00:00 23,4 8,2 29,5 32,9 22,5 16,1 13 7 29 15 NO 1011,9 39 60 0,0
16.06.2018 14:00:00 22,8 9,4 29,3 31,4 21,4 16,1 13 7 31 17 NO 1012,3 39 60 0,0
16.06.2018 13:00:00 21,8 8,8 27,8 29,4 20,2 16,1 14 8 27 15 NO 1013,1 38 60 0,0
16.06.2018 12:00:00 20,7 7,8 25,9 26,9 19,1 16,1 13 7 22 12 NO 1013,6 42 60 0,0
16.06.2018 11:00:00 19,9 7,7 24,4 24,0 18,2 16,0 9 5 16 8 NO 1014,1 24 60 0,0
16.06.2018 10:00:00 19,1 8,2 21,9 20,5 17,6 16,0 4 2 8 4 ONO 1014,6 38 60 0,0
16.06.2018 09:00:00 16,3 7,9 18,4 17,3 17,4 16,0 4 2 8 5 ZZO 1015,7 37 60 0,0
16.06.2018 08:00:00 13,0 9,1 11,6 14,8 17,5 16,0 5 3 9 5 Z 1016,8 34 60 0,0
16.06.2018 07:00:00 9,5 7,8 7,9 13,6 18,0 16,0 2 1 7 4 W 1018,0 18 25 0,0
16.06.2018 06:00:00 7,0 6,4 6,6 13,9 18,5 16,0 3 1 4 2 ZW 1018,7 11 0 0,0
16.06.2018 05:00:00 7,1 6,6 6,6 14,5 19,0 16,1 2 1 8 5 W 1018,7 9 0 0,0
16.06.2018 04:00:00 7,6 7,0 7,1 15,3 19,6 16,1 3 2 9 5 ZW 1018,8 10 0 0,0
16.06.2018 03:00:00 8,0 7,4 7,7 16,1 20,2 16,1 4 2 10 6 ZW 1019,0 10 0 0,0
16.06.2018 02:00:00 8,7 7,8 8,1 17,0 20,8 16,1 3 2 8 4 ZZW 1018,9 15 0 0,0
16.06.2018 01:00:00 9,6 8,5 9,2 18,1 21,4 16,1 4 2 7 4 ZW 1019,0 20 0 0,0
16.06.2018 00:00:00 11,2 8,9 10,2 19,3 22,1 16,1 4 2 7 4 ZW 1018,4 34 0 0,0
15.06.2018 23:00:00 12,7 9,2 11,0 20,8 22,7 16,1 3 2 9 5 WZW 1017,6 44 0 0,0
15.06.2018 22:00:00 17,1 7,5 15,6 22,5 23,2 16,1 5 3 18 10 NO 1015,7 60 0 0,0
15.06.2018 21:00:00 18,1 7,3 17,3 24,2 23,7 16,1 7 4 16 9 NNO 1014,9 63 0 0,0
15.06.2018 20:00:00 18,9 6,3 19,5 26,7 23,8 16,1 10 6 29 16 NNO 1014,1 70 47 0,0
15.06.2018 19:00:00 20,0 7,1 22,3 28,8 23,7 16,1 13 7 29 16 NO 1013,6 70 59 0,0
15.06.2018 18:00:00 20,9 6,8 24,9 30,0 23,3 16,1 13 7 32 17 NNO 1013,0 38 60 0,0
15.06.2018 17:00:00 20,9 7,3 26,5 30,7 22,7 16,1 14 8 37 20 NNO 1013,2 37 60 0,0
15.06.2018 16:00:00 20,9 7,9 25,5 30,4 21,9 16,1 16 9 32 18 NO 1013,4 49 60 0,0
15.06.2018 15:00:00 20,7 8,5 25,1 29,9 21,0 16,1 16 9 31 17 NO 1013,4 37 60 0,0
15.06.2018 14:00:00 20,6 9,0 26,7 29,1 19,9 16,1 16 9 30 16 NO 1013,8 53 60 0,0
15.06.2018 13:00:00 19,7 8,0 25,4 27,2 18,9 16,1 11 6 27 15 NNO 1014,4 40 60 0,0
15.06.2018 12:00:00 18,3 8,3 22,9 24,9 17,9 16,2 14 8 28 15 NO 1014,9 36 60 0,0
15.06.2018 11:00:00 18,0 7,9 21,7 22,4 17,1 16,2 11 6 24 13 NO 1015,0 37 60 0,0
15.06.2018 10:00:00 17,1 8,2 20,0 19,7 16,5 16,2 9 5 16 9 NO 1015,5 41 60 0,0
15.06.2018 09:00:00 15,9 9,0 17,3 16,9 16,2 16,2 3 1 8 5 O 1016,1 58 60 0,0
15.06.2018 08:00:00 14,0 9,4 12,0 14,6 16,2 16,2 3 2 7 4 ZZO 1016,8 44 60 0,0
15.06.2018 07:00:00 11,1 9,0 9,7 13,5 16,5 16,2 3 2 9 5 ZW 1018,0 38 24 0,0
15.06.2018 06:00:00 8,5 8,0 8,5 13,3 16,8 16,2 5 3 9 5 WZW 1018,9 12 0 0,0
15.06.2018 05:00:00 8,3 7,9 8,1 13,7 17,2 16,2 2 1 6 4 ZZW 1018,9 9 0 0,0
15.06.2018 04:00:00 8,4 8,0 7,7 14,1 17,7 16,2 4 2 7 4 ZZW 1018,8 18 0 0,0
15.06.2018 03:00:00 8,9 8,5 8,8 14,7 18,1 16,3 0 0 7 4 N 1018,9 12 0 0,0
15.06.2018 02:00:00 9,3 8,7 8,6 15,4 18,6 16,3 0 0 9 5 N 1018,7 17 0 0,0
15.06.2018 01:00:00 10,2 9,3 9,5 16,3 19,1 16,3 3 1 5 3 W 1018,7 26 0 0,0
15.06.2018 00:00:00 11,3 10,1 10,9 17,3 19,6 16,3 3 2 8 4 W 1018,4 32 0 0,0
14.06.2018 23:00:00 12,4 10,4 12,2 18,4 20,1 16,3 4 2 8 4 ZW 1017,8 51 0 0,0
14.06.2018 22:00:00 12,7 10,3 12,6 19,3 20,6 16,3 2 1 7 4 W 1016,9 49 0 0,0
14.06.2018 21:00:00 14,8 9,5 14,0 20,9 21,0 16,4 4 2 18 10 NO 1015,3 63 0 0,0
14.06.2018 20:00:00 15,8 9,1 16,3 23,1 21,1 16,4 8 4 24 13 NO 1014,4 70 32 0,0
14.06.2018 19:00:00 17,3 9,1 20,7 25,1 21,0 16,4 10 5 26 14 NO 1013,7 52 60 0,0
14.06.2018 18:00:00 17,5 9,1 21,6 26,2 20,6 16,4 12 6 27 14 NNO 1013,5 37 60 0,0
14.06.2018 17:00:00 17,6 8,9 22,1 26,8 19,9 16,4 13 7 24 13 NO 1013,4 64 60 0,0
14.06.2018 16:00:00 17,7 9,2 22,9 25,8 19,2 16,4 11 6 30 16 NO 1013,7 33 47 0,0
14.06.2018 15:00:00 16,4 8,3 20,1 23,3 18,8 16,4 11 6 24 13 NO 1014,6 54 0 0,0
14.06.2018 14:00:00 16,0 8,1 19,1 23,1 18,2 16,5 8 4 19 11 NO 1014,9 70 1 0,0
14.06.2018 13:00:00 15,4 7,6 21,2 23,2 17,5 16,5 10 6 22 12 NO 1015,4 49 13 0,0
14.06.2018 12:00:00 14,6 6,7 18,4 23,0 16,6 16,5 12 7 22 12 NO 1015,9 43 37 0,0
14.06.2018 11:00:00 14,8 8,3 20,4 21,2 15,6 16,5 11 6 21 12 NO 1015,8 40 50 0,0
14.06.2018 10:00:00 14,4 8,8 16,7 17,1 15,1 16,5 6 3 12 6 OZO 1016,0 23 27 0,0
14.06.2018 09:00:00 11,9 8,2 11,8 15,0 14,9 16,5 2 1 8 5 NNW 1016,7 26 13 0,0
14.06.2018 08:00:00 10,7 8,9 11,3 13,7 14,9 16,5 3 2 7 4 NO 1017,0 18 21 0,0
14.06.2018 07:00:00 9,7 9,0 9,8 13,0 15,0 16,5 4 2 6 3 ZZW 1017,1 7 0 0,0
14.06.2018 06:00:00 9,3 8,7 9,3 12,9 15,1 16,6 3 1 4 2 Z 1017,4 10 0 0,0
14.06.2018 05:00:00 9,2 8,8 9,2 13,0 15,2 16,6 3 2 5 3 Z 1017,6 9 0 0,1
14.06.2018 04:00:00 9,2 8,7 9,4 13,2 15,4 16,6 3 2 6 3 ZW 1017,8 2,4 0 0,1
14.06.2018 03:00:00 9,3 8,8 9,4 13,3 15,5 16,6 3 2 6 4 ZZW 1018,1 4,9 0 0,0
14.06.2018 02:00:00 9,5 8,9 9,6 13,5 15,7 16,6 3 2 6 3 ZW 1017,9 6 0 0,0
14.06.2018 01:00:00 9,7 9,2 9,8 13,6 15,8 16,6 2 1 6 3 ZZW 1017,8 2,3 0 0,0
14.06.2018 00:00:00 9,9 9,5 10,1 13,8 16,0 16,6 3 2 7 4 NW 1018,0 9 0 0,0
13.06.2018 23:00:00 9,9 9,5 9,9 14,0 16,2 16,6 3 2 8 5 WZW 1017,8 6 0 0,1
13.06.2018 22:00:00 10,0 9,2 10,0 14,1 16,4 16,6 6 3 22 12 NO 1017,3 6 0 1,1
13.06.2018 21:00:00 10,0 9,1 9,9 14,7 16,6 16,6 7 4 20 11 ONO 1016,4 1,8 0 0,3
13.06.2018 20:00:00 11,0 10,3 11,0 15,2 16,7 16,6 2 1 9 5 OZO 1015,3 9 0 0,2
13.06.2018 19:00:00 10,8 9,8 11,1 15,3 16,9 16,6 6 4 20 11 NNO 1014,9 10 0 0,4
13.06.2018 18:00:00 10,9 9,8 11,1 15,8 16,9 16,6 11 6 23 12 NO 1014,2 3,6 0 0,3
13.06.2018 17:00:00 11,5 10,2 11,7 16,1 17,0 16,6 7 4 18 10 NO 1013,7 15 0 0,6
13.06.2018 16:00:00 11,6 10,2 11,8 16,4 17,0 16,6 8 5 21 12 ONO 1013,1 10 0 1,0
13.06.2018 15:00:00 11,8 10,7 12,2 16,3 17,0 16,6 9 5 25 14 NO 1012,6 13 0 0,5
13.06.2018 14:00:00 12,0 10,6 12,2 16,3 17,0 16,6 10 5 22 12 NO 1012,0 16 0 0,6
13.06.2018 13:00:00 12,1 11,0 12,5 16,0 17,0 16,6 9 5 23 13 NO 1011,5 18 0 1,8
13.06.2018 12:00:00 12,1 11,1 12,3 15,8 17,1 16,5 10 5 24 13 ONO 1011,0 8 0 2,4
13.06.2018 11:00:00 12,3 11,4 12,2 15,9 17,3 16,5 12 7 29 16 NO 1010,0 8 0 3,5
13.06.2018 10:00:00 12,9 12,2 13,0 16,3 17,4 16,5 8 4 24 13 ONO 1008,6 6 0 1,7
13.06.2018 09:00:00 13,6 12,7 13,7 16,3 17,5 16,5 10 5 23 12 NNO 1007,6 15 0 2,5
13.06.2018 08:00:00 14,0 13,5 14,1 16,3 17,6 16,5 4 2 9 5 NO 1007,3 2,4 0 2,2
13.06.2018 07:00:00 13,7 13,2 13,7 16,2 17,8 16,5 0 0 5 3 N 1007,2 7 0 0,5
13.06.2018 06:00:00 13,7 13,4 13,6 16,2 18,0 16,5 4 2 5 3 WZW 1007,1 9 0 2,4
13.06.2018 05:00:00 13,5 13,2 13,4 16,4 18,2 16,5 0 0 4 2 N 1007,3 15 0 1,4
13.06.2018 04:00:00 13,5 13,1 13,5 16,5 18,3 16,4 2 1 5 3 ZW 1007,5 7 0 1,0
13.06.2018 03:00:00 13,5 13,1 13,6 16,7 18,5 16,4 3 1 5 3 ZW 1007,9 6 0 0,4
13.06.2018 02:00:00 13,5 13,1 13,5 16,8 18,7 16,4 0 0 4 2 N 1008,3 22 0 0,1

tt = temperatuur
td = dauwpunt
tt 5cm = temperatuur 5cm
tt -5cm = temperatuur -5cm
tt -20cm = temperatuur -20cm
tt -100cm = temperatuur -100cm
ff = windsnelheid
fx = windstoten
dd = windrichting
ppp = luchtdruk
vv = zicht
sd = Zonneschijnduur
rr = neerslag

Weerstations in de omgeving